Ambler Airport
PAFM : now visible

Airfield :











YOU CAN JOIN US ON...

 
LOGIN :

Register | Disclaimer

   EN    FR    IT 

 









Legend :    VFR   Marginal VFR   IFR   Intensive IFR   Very Intensive IFR
Visi :
Ceiling :
>= 8 km
>= 3000ft
5 to 8 km
1000 to 3000 ft
1500m to 5 km
500 to 1000 ft
800 to 1500m
200 to 500 ft
< 800m
< 200 ft
Symbols :   Thunderstorms  Fog  Heavy snow  Heavy precipitations  Wind > 20 kt






- Airport Elevation : 334 ft
- IATA code : AFM


PAFM - Ambler

CURRENT METAR :
  • 241456Z AUTO 03006KT 10SM CLR M14/M16 A2956 RMK AO2 SLP021 T11391161 53001 FZRANO

EXPIRED METARs :
  • 241356Z AUTO 02008KT 10SM CLR M14/M16 A2956 RMK AO2 SLP018 T11391156 FZRANO
  • 241256Z AUTO 04007KT 10SM CLR M15/M17 A2956 RMK AO2 SLP020 T11501167 FZRANO

TAF N/A
PAZA FIR / North America



MET'MAP, your aeronautical weather chart ! - Copyright ORBIFLY December 2007 - Disclaimer

ORBIFLY MET'MAP TEAM :

Programming & Development : Alexandra Zaïnal
Concept & original design : Baudouin d'Aumeries
Assistance for programming : Marc-Olivier Méhu
Technical & hardware support : Manuel Goepfert

Contact : metmap@orbifly.com




SOURCES & CREDITS :

   NOAA       Earth
Advisory